Tracking 31011 objects as of 11-Jul-2025
HD Live streaming from Space Station
objects crossing your sky now

FENGYUN 1C DEB

Track FENGYUN 1C DEB now!
10-day predictions


NORAD ID: 35109
Int'l Code: 1999-025DKM
Perigee: 719.5 km
Apogee: 941.3 km
Inclination: 98.6 °
Period: 101.4 minutes
Semi major axis: 7201 km
RCS: 0.0098 m2 (small)
Launch date: May 10, 1999
Source: People's Republic of China (PRC)
Launch site: Taiyaun Space Center, China (TSC)

Note: This is SATELLITE DEBRIS
Your satellite tracking list
Your tracking list is empty




NASA's NSSDC Master Catalog

Two Line Element Set (TLE):
1 35109U 99025DKM 25185.22279421  .00000368  00000-0  16913-3 0  9993
2 35109  98.6008 178.5993 0154049 141.1456 220.0916 14.20621661618664
Source of the keplerian elements: AFSPC